Find Starlink 37394

NORAD ID: 100475 Int'l Des: 2026-196 Owner: SPXS Country: US Constellation: starlink operational

Current View

Loading 3D Globe...

About Starlink 37394

Starlink 37394 (NORAD 100475) is a starlink constellation satellite launched Aug 25, 2026 by SPXS of US. with a mass of 575.00 kg.

Upcoming Passes

Passes for default location (London). Set your location on the main map for personalized predictions.

Altitude History

Loading altitude history...

Two-Line Element Set

1 A0475U 26196C 26255.30330867 .00094718 00000-0 50130-3 0 9991
2 A0475 53.1575 282.4751 0000981 86.3415 273.7719 15.79840160 4065
Epoch: Sep 12, 2026 • Age: 10 hours

Current Status

Altitude 348.6 km
Apogee / Perigee N/A
Velocity 7.70 km/s
Sub-Earth Point -50.28°S, 89.5°W
Launch Date Aug 25, 2026
Age 18 days
Type internet

Technical Details

Classification Payload
Mass 575.00 kg
Dry Mass 530.00 kg
Total Mass 575.00 kg
Length 0.30 m
Diameter 4.10 m
Span 29.00 m
Shape Box + pan
Manufacturer SPXS
Bus Type Starlink V2MO
Phase Status In Orbit
Owner/State SPXS/US

Most Searched